Погода в Мае

Узбекистан     41°27′53″N   69°28′14″E
темп.,
°C
ветер,
м/с
пор.,
м/с
влажн.,
%
обл.,
%
осадки,
мм/ч
давл.,
гПа
погр.,
м
27 февраля, сб
сб2723:00−7всв1171100 0.0 103121
02:00−6с1168100 0.0 102921
05:00−5с1267100 0.0 102923
08:00−4ссв1167100 0.1 102922
11:00−1ююв2360100 0.1 1030285
14:00+2ююв466598 0.0 10291400
17:00+1ю226755 0.0 102937
20:00−3всв33693 0.0 103226
28 февраля, вс
вс2823:00−3всв55642 0.0 103164
02:00−3всв66600 0.0 102982
05:00−3всв67580 0.0 102898
08:00−3всв57600 0.0 1027101
11:00+3всв34600 0.0 1024181
14:00+7вюв11510 0.0 1022337
17:00+5с12690 0.0 102122
20:00+1всв23640 0.0 102225
1 марта, пн
пн123:00+1всв345746 0.0 102135
02:00+1всв3456100 0.0 102133
05:00+1всв3355100 0.0 102132
08:00+3всв4453100 0.0 102149
11:00+10в235084 0.0 1020138
14:00+13в23470 0.0 1019283
17:00+10всв23570 0.0 101937
20:00+6в55480 0.0 102052
2 марта, вт
вт223:00+5в67470 0.0 102169
02:00+5всв665033 0.0 102169
05:00+5всв445467 0.0 102139
08:00+6всв3356100 0.0 102232
11:00+12всв2141100 0.0 1022325
14:00+13з1134100 0.0 1020610
17:00+11сз1251100 0.0 102052
20:00+9в6858100 0.0 1022121
3 марта, ср
ср323:00+8в6766100 0.0 1022114
02:00+8юв3567100 0.0 102196
05:00+6вюв3485100 0.7 1021139
08:00+6юв4785100 0.2 1021294
11:00+7ююв3584100 0.6 1021383
14:00+7ююз1380100 1.8 1020586
17:00+6вюв5589100 5.5 1020357
20:00+5в4786100 0.4 1020188